Time,TemperatureF,DewpointF,PressureIn,WindDirection,WindDirectionDegrees,WindSpeedMPH,WindSpeedGustMPH,Humidity,HourlyPrecipIn,Conditions,Clouds,dailyrainin,SoftwareType,DateUTC
2013-03-19 00:15:00,67.3,66.7,29.73,ENE,67,8.3,-999.0,98,-99.99,,,0.00,Acu-Link.com,2013-03-19 05:15:00,
2013-03-19 00:30:00,66.7,66.2,29.74,NE,45,7.8,-999.0,98,-99.99,,,0.00,Acu-Link.com,2013-03-19 05:30:00,
2013-03-19 00:45:00,66.4,65.8,29.74,NE,45,4.3,-999.0,98,-99.99,,,0.00,Acu-Link.com,2013-03-19 05:45:00,
2013-03-19 01:01:00,65.8,65.3,29.74,NE,45,2.7,-999.0,98,-99.99,,,0.00,Acu-Link.com,2013-03-19 06:01:00,
2013-03-19 01:16:00,65.7,65.1,29.74,ENE,67,5.1,-999.0,98,-99.99,,,0.00,Acu-Link.com,2013-03-19 06:16:00,
2013-03-19 01:31:00,65.3,64.7,29.74,NNE,22,4.3,-999.0,98,-99.99,,,0.00,Acu-Link.com,2013-03-19 06:31:00,
2013-03-19 02:02:00,64.9,64.4,29.75,NNE,22,3.8,-999.0,98,-99.99,,,0.00,Acu-Link.com,2013-03-19 07:02:00,
2013-03-19 02:17:00,64.6,64.0,29.75,NW,315,11.0,-999.0,98,-99.99,,,0.00,Acu-Link.com,2013-03-19 07:17:00,
2013-03-19 02:32:00,64.4,63.8,29.75,ENE,67,4.7,-999.0,98,-99.99,,,0.00,Acu-Link.com,2013-03-19 07:32:00,
2013-03-19 02:47:00,63.9,63.3,29.76,NE,45,4.3,-999.0,98,-99.99,,,0.00,Acu-Link.com,2013-03-19 07:47:00,
2013-03-19 03:03:00,63.0,62.4,29.76,NE,45,7.4,-999.0,98,-99.99,,,0.00,Acu-Link.com,2013-03-19 08:03:00,
2013-03-19 03:18:00,62.6,62.0,29.77,NNE,22,8.9,-999.0,98,-99.99,,,0.00,Acu-Link.com,2013-03-19 08:18:00,
2013-03-19 03:33:00,62.1,61.5,29.77,NE,45,4.3,-999.0,98,-99.99,,,0.00,Acu-Link.com,2013-03-19 08:33:00,
2013-03-19 03:48:00,61.2,60.6,29.77,ENE,67,6.7,-999.0,98,-99.99,,,0.00,Acu-Link.com,2013-03-19 08:48:00,
2013-03-19 04:04:00,60.3,59.7,29.77,NE,45,5.8,-999.0,98,-99.99,,,0.00,Acu-Link.com,2013-03-19 09:04:00,
2013-03-19 04:19:00,59.4,58.8,29.78,NNE,22,6.3,-999.0,98,-99.99,,,0.00,Acu-Link.com,2013-03-19 09:19:00,
2013-03-19 04:34:00,58.6,58.1,29.78,ESE,112,11.9,-999.0,98,-99.99,,,0.00,Acu-Link.com,2013-03-19 09:34:00,
2013-03-19 04:50:00,57.9,57.4,29.78,NE,45,2.7,-999.0,98,-99.99,,,0.00,Acu-Link.com,2013-03-19 09:50:00,
2013-03-19 05:05:00,57.2,56.6,29.78,NNE,22,6.7,-999.0,98,-99.99,,,0.00,Acu-Link.com,2013-03-19 10:05:00,
2013-03-19 05:20:00,56.7,56.1,29.78,NE,45,1.6,-999.0,98,-99.99,,,0.00,Acu-Link.com,2013-03-19 10:20:00,
2013-03-19 05:35:00,56.5,55.9,29.79,NNW,337,7.4,-999.0,98,-99.99,,,0.00,Acu-Link.com,2013-03-19 10:35:00,
2013-03-19 05:51:00,56.1,55.6,29.80,NE,45,5.1,-999.0,98,-99.99,,,0.00,Acu-Link.com,2013-03-19 10:51:00,
2013-03-19 06:36:00,54.3,53.8,29.82,NE,45,3.1,-999.0,98,-99.99,,,0.00,Acu-Link.com,2013-03-19 11:36:00,
2013-03-19 06:51:00,53.6,53.0,29.82,ESE,112,4.7,-999.0,98,-99.99,,,0.00,Acu-Link.com,2013-03-19 11:51:00,
2013-03-19 07:07:00,53.4,52.9,29.83,SSW,202,4.7,-999.0,98,-99.99,,,0.00,Acu-Link.com,2013-03-19 12:07:00,
2013-03-19 07:22:00,53.1,52.5,29.82,East,90,5.8,-999.0,98,-99.99,,,0.00,Acu-Link.com,2013-03-19 12:22:00,
2013-03-19 07:37:00,52.9,52.3,29.82,ESE,112,3.8,-999.0,98,-99.99,,,0.00,Acu-Link.com,2013-03-19 12:37:00,
2013-03-19 07:52:00,53.2,52.7,29.83,ESE,112,3.1,-999.0,98,-99.99,,,0.00,Acu-Link.com,2013-03-19 12:52:00,
2013-03-19 08:08:00,53.8,53.2,29.82,East,90,4.3,-999.0,98,-99.99,,,0.00,Acu-Link.com,2013-03-19 13:08:00,
2013-03-19 08:23:00,54.9,54.3,29.83,ENE,67,5.1,-999.0,98,-99.99,,,0.00,Acu-Link.com,2013-03-19 13:23:00,
2013-03-19 08:38:00,56.5,55.9,29.83,East,90,4.7,-999.0,98,-99.99,,,0.00,Acu-Link.com,2013-03-19 13:38:00,
2013-03-19 08:54:00,57.6,57.0,29.83,East,90,5.1,-999.0,98,-99.99,,,0.00,Acu-Link.com,2013-03-19 13:54:00,
2013-03-19 09:09:00,58.6,58.1,29.83,ESE,112,8.3,-999.0,98,-99.99,,,0.00,Acu-Link.com,2013-03-19 14:09:00,
2013-03-19 09:24:00,60.1,55.2,29.83,NE,45,4.3,-999.0,84,-99.99,,,0.00,Acu-Link.com,2013-03-19 14:24:00,
2013-03-19 09:40:00,60.8,54.2,29.84,SSE,157,4.3,-999.0,79,-99.99,,,0.00,Acu-Link.com,2013-03-19 14:40:00,
2013-03-19 09:55:00,61.7,53.7,29.84,SE,135,6.3,-999.0,75,-99.99,,,0.00,Acu-Link.com,2013-03-19 14:55:00,
2013-03-19 10:10:00,63.9,54.7,29.84,ESE,112,2.7,-999.0,72,-99.99,,,0.00,Acu-Link.com,2013-03-19 15:10:00,
2013-03-19 10:25:00,64.4,53.2,29.84,ESE,112,6.7,-999.0,67,-99.99,,,0.00,Acu-Link.com,2013-03-19 15:25:00,
2013-03-19 10:40:00,65.3,53.6,29.84,South,180,2.7,-999.0,66,-99.99,,,0.00,Acu-Link.com,2013-03-19 15:40:00,
2013-03-19 11:11:00,67.8,53.9,29.83,ENE,67,8.3,-999.0,61,-99.99,,,0.00,Acu-Link.com,2013-03-19 16:11:00,
2013-03-19 11:26:00,68.4,53.0,29.83,East,90,5.1,-999.0,58,-99.99,,,0.00,Acu-Link.com,2013-03-19 16:26:00,
2013-03-19 11:42:00,68.9,54.0,29.83,SE,135,3.8,-999.0,59,-99.99,,,0.00,Acu-Link.com,2013-03-19 16:42:00,
2013-03-19 11:57:00,70.2,53.2,29.83,East,90,3.8,-999.0,55,-99.99,,,0.00,Acu-Link.com,2013-03-19 16:57:00,
2013-03-19 12:12:00,70.9,53.9,29.84,NE,45,6.3,-999.0,55,-99.99,,,0.00,Acu-Link.com,2013-03-19 17:12:00,
2013-03-19 12:27:00,72.1,55.1,29.83,ESE,112,3.8,-999.0,55,-99.99,,,0.00,Acu-Link.com,2013-03-19 17:27:00,
2013-03-19 12:43:00,73.2,54.5,29.83,NE,45,3.1,-999.0,52,-99.99,,,0.00,Acu-Link.com,2013-03-19 17:43:00,
2013-03-19 12:58:00,72.9,54.2,29.83,SSE,157,2.7,-999.0,52,-99.99,,,0.00,Acu-Link.com,2013-03-19 17:58:00,
2013-03-19 13:13:00,74.3,55.0,29.82,SSE,157,9.4,-999.0,51,-99.99,,,0.00,Acu-Link.com,2013-03-19 18:13:00,
2013-03-19 13:28:00,75.6,56.1,29.82,SE,135,4.3,-999.0,51,-99.99,,,0.00,Acu-Link.com,2013-03-19 18:28:00,
2013-03-19 13:44:00,76.6,56.6,29.80,ENE,67,9.8,-999.0,50,-99.99,,,0.00,Acu-Link.com,2013-03-19 18:44:00,
2013-03-19 13:59:00,75.9,55.9,29.80,East,90,5.1,-999.0,50,-99.99,,,0.00,Acu-Link.com,2013-03-19 18:59:00,
2013-03-19 14:14:00,77.2,57.1,29.78,ESE,112,4.3,-999.0,50,-99.99,,,0.00,Acu-Link.com,2013-03-19 19:14:00,
2013-03-19 14:30:00,77.0,56.4,29.78,North,0,2.7,-999.0,49,-99.99,,,0.00,Acu-Link.com,2013-03-19 19:30:00,
2013-03-19 14:45:00,77.7,57.6,29.78,ENE,67,4.7,-999.0,50,-99.99,,,0.00,Acu-Link.com,2013-03-19 19:45:00,
2013-03-19 15:00:00,77.9,57.2,29.78,East,90,6.3,-999.0,49,-99.99,,,0.00,Acu-Link.com,2013-03-19 20:00:00,
2013-03-19 15:16:00,78.8,58.6,29.77,SSE,157,6.3,-999.0,50,-99.99,,,0.00,Acu-Link.com,2013-03-19 20:16:00,
2013-03-19 15:31:00,78.4,58.2,29.76,ESE,112,4.3,-999.0,50,-99.99,,,0.00,Acu-Link.com,2013-03-19 20:31:00,
2013-03-19 15:46:00,78.4,58.8,29.76,East,90,3.8,-999.0,51,-99.99,,,0.00,Acu-Link.com,2013-03-19 20:46:00,
2013-03-19 16:01:00,78.8,59.1,29.75,NE,45,4.3,-999.0,51,-99.99,,,0.00,Acu-Link.com,2013-03-19 21:01:00,
2013-03-19 16:31:00,78.6,59.5,29.74,East,90,4.3,-999.0,52,-99.99,,,0.00,Acu-Link.com,2013-03-19 21:31:00,
2013-03-19 16:47:00,79.3,60.7,29.74,East,90,7.4,-999.0,53,-99.99,,,0.00,Acu-Link.com,2013-03-19 21:47:00,
2013-03-19 17:02:00,79.2,60.0,29.74,South,180,1.1,-999.0,52,-99.99,,,0.00,Acu-Link.com,2013-03-19 22:02:00,
2013-03-19 17:17:00,82.0,61.0,29.73,East,90,4.7,-999.0,49,-99.99,,,0.00,Acu-Link.com,2013-03-19 22:17:00,
2013-03-19 17:32:00,83.3,60.3,29.74,SW,225,3.1,-999.0,46,-99.99,,,0.00,Acu-Link.com,2013-03-19 22:32:00,
2013-03-19 17:48:00,80.4,60.1,29.74,NE,45,4.3,-999.0,50,-99.99,,,0.00,Acu-Link.com,2013-03-19 22:48:00,
2013-03-19 18:03:00,77.9,59.9,29.75,ENE,67,2.7,-999.0,54,-99.99,,,0.00,Acu-Link.com,2013-03-19 23:03:00,
2013-03-19 18:18:00,77.2,59.7,29.74,South,180,2.7,-999.0,55,-99.99,,,0.00,Acu-Link.com,2013-03-19 23:18:00,
2013-03-19 18:33:00,76.1,60.2,29.75,SSE,157,3.8,-999.0,58,-99.99,,,0.00,Acu-Link.com,2013-03-19 23:33:00,
2013-03-19 18:48:00,75.2,60.8,29.74,ESE,112,5.1,-999.0,61,-99.99,,,0.00,Acu-Link.com,2013-03-19 23:48:00,
2013-03-19 19:04:00,74.1,64.9,29.74,NNW,337,2.7,-999.0,73,-99.99,,,0.00,Acu-Link.com,2013-03-20 00:04:00,
2013-03-19 19:19:00,72.1,63.4,29.75,ESE,112,2.7,-999.0,74,-99.99,,,0.00,Acu-Link.com,2013-03-20 00:19:00,
2013-03-19 19:34:00,70.9,63.3,29.76,East,90,2.2,-999.0,77,-99.99,,,0.00,Acu-Link.com,2013-03-20 00:34:00,
2013-03-19 19:49:00,69.8,64.7,29.76,ESE,112,1.1,-999.0,84,-99.99,,,0.00,Acu-Link.com,2013-03-20 00:49:00,
2013-03-19 20:05:00,68.5,67.4,29.77,ESE,112,3.1,-999.0,96,-99.99,,,0.00,Acu-Link.com,2013-03-20 01:05:00,
2013-03-19 20:20:00,67.5,66.9,29.76,ESE,112,1.6,-999.0,98,-99.99,,,0.00,Acu-Link.com,2013-03-20 01:20:00,
2013-03-19 20:35:00,66.4,65.8,29.77,East,90,1.1,-999.0,98,-99.99,,,0.00,Acu-Link.com,2013-03-20 01:35:00,
2013-03-19 20:50:00,65.5,64.9,29.78,NE,45,1.1,-999.0,98,-99.99,,,0.00,Acu-Link.com,2013-03-20 01:50:00,
2013-03-19 21:05:00,64.4,63.8,29.78,NNE,22,0.0,-999.0,98,-99.99,,,0.00,Acu-Link.com,2013-03-20 02:05:00,
2013-03-19 21:36:00,62.2,61.7,29.78,ESE,112,0.0,-999.0,98,-99.99,,,0.00,Acu-Link.com,2013-03-20 02:36:00,
2013-03-19 22:07:00,61.7,61.1,29.80,East,90,1.6,-999.0,98,-99.99,,,0.00,Acu-Link.com,2013-03-20 03:07:00,
2013-03-19 22:22:00,61.5,60.9,29.80,ESE,112,1.6,-999.0,98,-99.99,,,0.00,Acu-Link.com,2013-03-20 03:22:00,
2013-03-19 22:37:00,61.2,60.6,29.80,ESE,112,2.7,-999.0,98,-99.99,,,0.00,Acu-Link.com,2013-03-20 03:37:00,
2013-03-19 22:52:00,61.3,60.8,29.81,SE,135,2.2,-999.0,98,-99.99,,,0.00,Acu-Link.com,2013-03-20 03:52:00,
2013-03-19 23:07:00,61.0,60.4,29.81,ESE,112,1.6,-999.0,98,-99.99,,,0.00,Acu-Link.com,2013-03-20 04:07:00,
2013-03-19 23:23:00,60.4,59.9,29.80,ENE,67,2.2,-999.0,98,-99.99,,,0.00,Acu-Link.com,2013-03-20 04:23:00,
2013-03-19 23:38:00,60.4,59.9,29.81,North,0,0.0,-999.0,98,-99.99,,,0.00,Acu-Link.com,2013-03-20 04:38:00,
2013-03-19 23:53:00,60.1,59.5,29.82,ENE,67,0.0,-999.0,98,-99.99,,,0.00,Acu-Link.com,2013-03-20 04:53:00,